Regional Weather Roundup
Issued by NWS

Home | Current Version | Previous Version | Graphics & Text | Print | Product List | Glossary On
Versions: 1 2 3 4 5 6 7 8 9 10 11 12 13 14 15 16 17 18 19 20 21 22 23 24 25 26 27 28 29 30 31 32 33 34 35 36 37 38 39 40 41 42 43 44 45 46 47 48 49 50
000
ASUS43 KLMK 240910
RWRKY
KENTUCKY REGIONAL WEATHER ROUNDUP
NATIONAL WEATHER SERVICE LOUISVILLE KY
500 AM EDT WED AUG 24 2016

NOTE "FAIR" INDICATES FEW OR NO CLOUDS BELOW 12,000 FEET
WITH NO SIGNIFICANT WEATHER AND/OR OBSTRUCTIONS TO VISIBILITY.

KYZ001>023-026-027-061>063-070>075-241000-
WESTERN AND SOUTH CENTRAL KENTUCKY

CITY           SKY/WX    TMP DP  RH WIND       PRES   REMARKS
PADUCAH        PTCLDY    74  70  87 S5        30.13R
HENDERSON      CLOUDY    70  66  88 CALM      30.13S
OWENSBORO      CLEAR     70  69  96 S5        30.16S
HOPKINSVILLE   CLEAR     73  71  93 SE3       30.16R
BOWLING GREEN  CLEAR     70  68  93 CALM      30.18S
GLASGOW        CLEAR     67  67 100 CALM      30.19R
$$

KYZ024-025-028>034-038-045-046-053-241000-
NORTH CENTRAL KENTUCKY

CITY           SKY/WX    TMP DP  RH WIND       PRES   REMARKS
LOUISVILLE/SDF CLOUDY    72  66  81 E5        30.17S
LOUISVILLE/LOU CLOUDY    71  65  81 CALM      30.18S
FORT KNOX      CLOUDY    68  65  89 S2        30.16F
$$

KYZ035>037-039>044-047>052-055>060-089>105-241000-
NORTHEAST KENTUCKY

CITY           SKY/WX    TMP DP  RH WIND       PRES   REMARKS
LEXINGTON      PTCLDY    67  62  84 S7        30.21S
COVINGTON      PTCLDY    68  62  81 S3        30.20R
FRANKFORT      PTCLDY    68  62  81 CALM      30.19R
$$

KYZ054-064>069-076>088-106>120-241000-
SOUTHEAST KENTUCKY

CITY           SKY/WX    TMP DP  RH WIND       PRES   REMARKS
JACKSON        PTCLDY    66  61  84 CALM      30.24S
LONDON         PTCLDY    65  61  87 CALM      30.23S
SOMERSET       PTCLDY    63  63 100 CALM      30.23S
MIDDLESBORO    CLEAR     62  62  99 CALM      30.26S
MONTICELLO     CLOUDY   N/A N/A N/A VRB3      30.23
$$




USA.gov is the U.S. government's official web portal to all federal, state and local government web resources and services.